Retour au catalogue

THORAD DELTA 1 DEB

ActifSSO
NORAD 8596·DEBRIS·🇺🇸 United States

Lancé Nov 15, 1974 depuis Vandenberg Space Force Base

Loading…

Prochains Passages (prochaines 24 heures)

TLE

FraisSource: Space-Track

Époque: Sep 13, 2026, 13:47 UTC

1  8596U 74089DK  26256.57475111  .00000001  00000-0  23810-3 0  9996
2  8596 101.7543 130.1906 0087962 133.6628 294.2551 12.68844590398030

Suivez THORAD DELTA 1 DEB en temps réel avec AllMySat

Download on the App Store